New Paris, IN

4:29 AM EDT on August 30, 2016 (GMT -0400)
Goshen Municipal

Weather History for KGSH - February, 2013

Change the Weather History Date:

Thursday, February 28, 2013

  Actual Average Record
Temperature  
Mean Temperature 34 °F -  
Max Temperature 37 °F 40 °F 63 °F (1976)
Min Temperature 32 °F 23 °F -9 °F (2015)
Degree Days  
Heating Degree Days 30    
Moisture  
Dew Point 30 °F    
Average Humidity 84    
Maximum Humidity 96    
Minimum Humidity 70    
Precipitation  
Precipitation 0.00 in - - ()
Sea Level Pressure  
Sea Level Pressure 29.79 in    
Wind  
Wind Speed 10 mph (NW)    
Max Wind Speed 15 mph    
Max Gust Speed -    
Visibility 8 miles    
Events Fog    
Averages and records for this station are not official NWS values.
T = Trace of Precipitation, MM = Missing Value Source: NWS Daily Summary

Daily Weather History Graph

Daily Weather History Graph

Search for Another Location

Airport or City:

Trip Planner

Search our weather history database for the weather conditions in past years. The results will help you decide how hot, cold, wet, or windy it might be!

Date:

Astronomy

Feb. 28, 2013 Rise Set
Actual Time 7:18 AM EST 6:32 PM EST
Civil Twilight 6:51 AM EST 7:00 PM EST
Nautical Twilight 6:19 AM EST 7:32 PM EST
Astronomical Twilight 5:46 AM EST 8:04 PM EST
Moon 10:02 PM EST (2/28) 8:25 AM EST (2/28)
Length of Visible Light 12h 09m
Length of Day
11h 13m
Waning Gibbous, 91% of the Moon is Illuminated
Feb 28
Waning Gibbous
Mar 4
Last Quarter
Mar 11
New
Mar 19
First Quarter
Mar 27
Full

Hourly Weather History & Observations

Time (EST) Temp. Windchill Dew Point Humidity Pressure Visibility Wind Dir Wind Speed Gust Speed Precip Events Conditions
12:00 AM 33.8 °F 26.4 °F 30.2 °F 87% 29.58 in 3.0 mi West 9.2 mph - N/A   Overcast
12:27 AM 33.8 °F 25.8 °F 30.2 °F 87% 29.58 in 2.5 mi West 10.4 mph - N/A   Overcast
12:53 AM 33.1 °F 25.5 °F 30.9 °F 92% 29.61 in 0.8 mi WNW 9.2 mph - N/A   Overcast
1:10 AM 33.8 °F 27.0 °F 32.0 °F 93% 29.59 in 0.5 mi WNW 8.1 mph - N/A Fog Fog
2:01 AM 33.8 °F 27.0 °F 32.0 °F 93% 29.60 in 0.8 mi NW 8.1 mph - N/A   Mist
2:11 AM 33.8 °F 26.4 °F 32.0 °F 93% 29.61 in 1.2 mi WNW 9.2 mph - N/A   Overcast
2:27 AM 33.8 °F 26.4 °F 32.0 °F 93% 29.61 in 2.5 mi WNW 9.2 mph - N/A   Overcast
2:34 AM 33.8 °F 27.0 °F 32.0 °F 93% 29.61 in 4.0 mi NW 8.1 mph - N/A   Overcast
2:53 AM 33.1 °F 25.5 °F 32.0 °F 96% 29.63 in 6.0 mi NW 9.2 mph - N/A   Overcast
3:09 AM 33.8 °F 27.0 °F 32.0 °F 93% 29.61 in 7.0 mi NW 8.1 mph - N/A   Overcast
3:53 AM 34.0 °F 27.2 °F 30.9 °F 89% 29.65 in 9.0 mi NW 8.1 mph - N/A   Overcast
4:53 AM 34.0 °F 26.6 °F 30.9 °F 89% 29.67 in 10.0 mi NNW 9.2 mph - N/A   Overcast
5:53 AM 34.0 °F 26.0 °F 30.9 °F 89% 29.68 in 10.0 mi NNW 10.4 mph - N/A   Overcast
6:36 AM 33.8 °F 25.8 °F 30.2 °F 87% 29.67 in 10.0 mi NW 10.4 mph - N/A   Overcast
7:53 AM 34.0 °F 25.0 °F 30.0 °F 85% 29.73 in 10.0 mi NNW 12.7 mph - N/A   Overcast
8:53 AM 34.0 °F 24.2 °F 28.9 °F 82% 29.76 in 10.0 mi North 15.0 mph - N/A   Overcast
9:53 AM 34.0 °F 26.0 °F 28.9 °F 82% 29.78 in 10.0 mi NNW 10.4 mph - N/A   Overcast
10:53 AM 35.1 °F 25.9 °F 28.9 °F 78% 29.80 in 10.0 mi NNW 13.8 mph - N/A   Overcast
11:53 AM 35.1 °F 26.4 °F 30.0 °F 82% 29.82 in 10.0 mi NNW 12.7 mph - N/A   Overcast
12:08 PM 35.6 °F 27.5 °F 30.2 °F 81% 29.80 in 10.0 mi NNW 11.5 mph - N/A   Overcast
12:53 PM 36.0 °F 28.5 °F 30.0 °F 79% 29.83 in 10.0 mi NNW 10.4 mph - N/A   Overcast
1:53 PM 37.0 °F 28.5 °F 30.0 °F 76% 29.83 in 10.0 mi North 13.8 mph - N/A   Overcast
2:53 PM 37.0 °F 28.9 °F 28.9 °F 73% 29.84 in 10.0 mi NNW 12.7 mph - N/A   Overcast
3:02 PM 37.4 °F 29.3 °F 28.4 °F 70% 29.83 in 10.0 mi NW 12.7 mph - N/A   Overcast
3:34 PM 37.4 °F 30.8 °F 28.4 °F 70% 29.83 in 10.0 mi NNW 9.2 mph - N/A   Overcast
4:53 PM 37.0 °F 28.9 °F 28.9 °F 73% 29.89 in 10.0 mi NNW 12.7 mph - N/A   Overcast
5:04 PM 35.6 °F 27.1 °F 28.4 °F 75% 29.87 in 10.0 mi NW 12.7 mph - N/A   Overcast
5:53 PM 35.1 °F 26.9 °F 28.0 °F 76% 29.91 in 10.0 mi NNW 11.5 mph - N/A   Overcast
6:53 PM 34.0 °F 26.6 °F 28.0 °F 79% 29.95 in 10.0 mi NNW 9.2 mph - N/A   Overcast
7:53 PM 33.1 °F 23.9 °F 28.0 °F 82% 29.97 in 10.0 mi NW 12.7 mph - N/A   Overcast
8:50 PM 33.8 °F 24.8 °F 28.4 °F 81% 29.95 in 10.0 mi NW 12.7 mph - N/A   Overcast
8:53 PM 33.1 °F 24.4 °F 28.0 °F 82% 29.98 in 9.0 mi NW 11.5 mph - N/A   Overcast
9:53 PM 32.0 °F 23.6 °F 28.0 °F 85% 29.98 in 9.0 mi NNW 10.4 mph - N/A   Overcast
10:16 PM 32.0 °F 24.8 °F 28.4 °F 87% 29.96 in 10.0 mi NNW 8.1 mph - N/A   Overcast
10:26 PM 32.0 °F 24.2 °F 28.4 °F 87% 29.96 in 10.0 mi NNW 9.2 mph - N/A   Overcast
10:53 PM 32.0 °F 25.6 °F 28.0 °F 85% 29.98 in 10.0 mi NNW 6.9 mph - N/A   Overcast
11:09 PM 32.0 °F 25.6 °F 28.4 °F 87% 29.96 in 10.0 mi NNW 6.9 mph - N/A   Overcast
11:37 PM 32.0 °F 25.6 °F 28.4 °F 87% 29.96 in 10.0 mi NNW 6.9 mph - N/A   Overcast
11:53 PM 32.0 °F 24.8 °F 28.0 °F 85% 29.99 in 10.0 mi NNW 8.1 mph - N/A   Overcast